Tracking 27112 objects as of 26-Mar-2023
HD Live streaming from Space Station
objects crossing your sky now

IRIDIUM 71

Track IRIDIUM 71 now!
10-day predictions
IRIDIUM 71 is classified as:


NORAD ID: 25320
Int'l Code: 1998-026B
Perigee: 766.2 km
Apogee: 767.1 km
Inclination: 86.4 °
Period: 100.0 minutes
Semi major axis: 7137 km
RCS: 4.0318 m2 (large)
Launch date: May 2, 1998
Source: United States (US)
Launch site: Taiyaun Space Center, China (TSC)
Your satellite tracking list
Your tracking list is empty




NASA's NSSDC Master Catalog

Two Line Element Set (TLE):
1 25320U 98026B   23084.92238191  .00001079  00000-0  33864-3 0  9993
2 25320  86.3927  73.6958 0000651 155.8492 204.2737 14.39690315306389
Source of the keplerian elements: AFSPC